User: anonymous   Login
Location: Asarope
(8.2500°N, 4.4833°E)
Time: 13:32:27
(UTC+00:00)
Language:

Cosmos 2239 Rocket - Orbit

View from above orbital plane
View from above orbital plane
View from above satellite
View from above satellite

Ground track
Ground track

The orbit data is extracted from the following two-line orbital elements,

1 22591U 93020B   20218.51918703 +.00000087 +00000-0 +72330-4 0  9994
2 22591 082.9275 266.4386 0026265 049.5204 059.2801 13.77435489374150
Epoch (UTC): 05 August 2020 12:27:37
Eccentricity: 0.0026265
inclination: 82.9275°
perigee height: 953 km
apogee height: 992 km
right ascension of ascending node: 266.4386°
argument of perigee: 49.5204°
revolutions per day: 13.77435489
mean anomaly at epoch: 59.2801°
orbit number at epoch: 37415

The dashed part of the orbit path shows where the satellite is in the earth's shadow,  

DLR